SM2GSR-2 Weather Reports


time (UTC)temp
F
wind
direction
speed
knots
gust
knots
rain 1hr
in
rain 24hr
in
rain mn
in
humidity
%
barometer
mb
20260508225004 37 181 0.0 0.0 0.00 0.00 0.00 65 1017.0
20260508224503 38 181 0.0 0.0 0.00 0.00 0.00 64 1017.1
20260508223503 39 181 0.0 0.0 0.00 0.00 0.00 62 1017.2
20260508223004 39 181 0.0 0.0 0.00 0.00 0.00 61 1017.2
20260508222503 40 181 0.0 0.0 0.00 0.00 0.00 60 1017.3
20260508222004 40 181 0.0 0.0 0.00 0.00 0.00 58 1017.4
20260508221004 41 181 0.0 0.0 0.00 0.00 0.00 57 1017.5
20260508220505 41 181 0.0 0.0 0.00 0.00 0.00 57 1017.5
20260508215504 41 182 0.0 0.0 0.00 0.00 0.00 56 1017.4
20260508214504 41 182 0.0 0.0 0.00 0.00 0.00 56 1017.4
20260508214003 41 182 0.0 0.0 0.00 0.00 0.00 56 1017.5
20260508213504 41 182 0.0 0.0 0.00 0.00 0.00 56 1017.4
20260508213004 42 182 0.0 0.0 0.00 0.00 0.00 55 1017.4
20260508212504 42 182 0.0 2.6 0.00 0.00 0.00 54 1017.5
20260508212004 42 184 0.0 0.9 0.00 0.00 0.00 53 1017.5
20260508211503 43 171 0.0 0.0 0.00 0.00 0.00 53 1017.4
20260508211004 43 173 0.0 4.3 0.00 0.00 0.00 52 1017.5
20260508210504 43 173 0.0 0.0 0.00 0.00 0.00 52 1017.5
20260508205504 44 178 0.0 5.2 0.00 0.00 0.00 51 1017.6
20260508205003 44 153 0.0 6.1 0.00 0.00 0.00 51 1017.6
20260508204004 44 182 0.9 5.2 0.00 0.00 0.00 50 1017.5
20260508203504 44 167 0.0 6.1 0.00 0.00 0.00 50 1017.5
20260508203004 44 150 0.0 0.0 0.00 0.00 0.00 49 1017.5
20260508202503 44 150 0.0 0.0 0.00 0.00 0.00 48 1017.4
20260508202004 45 150 0.0 0.0 0.00 0.00 0.00 48 1017.4
20260508201004 45 150 0.0 0.0 0.00 0.00 0.00 46 1017.3
20260508200504 46 149 0.0 2.6 0.00 0.00 0.00 45 1017.4
20260508200004 46 148 0.0 0.0 0.00 0.00 0.00 44 1017.4
20260508195504 46 147 0.0 0.0 0.00 0.00 0.00 44 1017.3
20260508195004 47 147 0.0 0.0 0.00 0.00 0.00 44 1017.3
20260508194504 47 147 0.0 0.0 0.00 0.00 0.00 43 1017.3
20260508194004 47 147 0.0 4.3 0.00 0.00 0.00 43 1017.2
20260508193003 47 147 0.0 0.0 0.00 0.00 0.00 43 1017.2
20260508192004 48 146 0.9 7.0 0.00 0.00 0.00 43 1017.1
20260508191504 49 140 0.0 0.0 0.00 0.00 0.00 42 1017.1
20260508191003 49 146 0.0 0.0 0.00 0.00 0.00 41 1017.1
20260508190504 49 155 0.0 5.2 0.00 0.00 0.00 41 1017.0
20260508190004 50 143 0.0 7.0 0.00 0.00 0.00 41 1017.0
20260508185504 50 140 0.9 5.2 0.00 0.00 0.00 40 1017.0
20260508185004 50 144 2.6 8.7 0.00 0.00 0.00 40 1016.9
20260508184504 50 164 0.9 7.0 0.00 0.00 0.00 40 1016.9
20260508183004 51 161 0.9 6.1 0.00 0.00 0.00 38 1016.8
20260508182504 51 167 0.9 6.1 0.00 0.00 0.00 38 1016.9
20260508182004 52 160 0.0 5.2 0.00 0.00 0.00 37 1016.8
20260508181503 52 157 2.6 7.8 0.00 0.00 0.00 37 1016.8
20260508180503 53 177 4.3 12.2 0.00 0.00 0.00 36 1016.7
20260508180004 53 174 0.0 2.6 0.00 0.00 0.00 35 1016.7
20260508175004 54 190 0.0 6.1 0.00 0.00 0.00 33 1016.7
20260508174503 54 178 2.6 7.0 0.00 0.00 0.00 33 1016.7
20260508174003 54 181 0.9 5.2 0.00 0.00 0.00 32 1016.6
20260508173504 55 160 0.9 5.2 0.00 0.00 0.00 33 1016.6
20260508173004 55 150 0.0 5.2 0.00 0.00 0.00 32 1016.5
20260508172004 55 156 2.6 7.0 0.00 0.00 0.00 32 1016.5
20260508171504 55 184 0.0 0.0 0.00 0.00 0.00 33 1016.4
20260508171003 55 184 0.0 0.0 0.00 0.00 0.00 32 1016.5
20260508170505 55 185 0.0 0.0 0.00 0.00 0.00 32 1016.4
20260508170004 55 190 0.0 0.0 0.00 0.00 0.00 32 1016.5
20260508165504 55 200 0.9 4.3 0.00 0.00 0.00 31 1016.5
20260508165004 56 200 0.9 4.3 0.00 0.00 0.00 31 1016.4
20260508164004 56 191 0.0 0.9 0.00 0.00 0.00 31 1016.5
20260508163504 56 180 0.9 8.7 0.00 0.00 0.00 31 1016.5
20260508162503 56 203 0.0 4.3 0.00 0.00 0.00 31 1016.5
20260508162004 56 229 0.0 6.1 0.00 0.00 0.00 31 1016.5
20260508161504 56 238 0.9 5.2 0.00 0.00 0.00 30 1016.5
20260508161004 56 226 1.7 5.2 0.00 0.00 0.00 30 1016.5
20260508160504 56 261 1.7 5.2 0.00 0.00 0.00 30 1016.4
20260508160004 56 264 1.7 6.1 0.00 0.00 0.00 31 1016.4
20260508155003 55 298 0.0 2.6 0.00 0.00 0.00 31 1016.4
20260508154504 55 202 0.0 0.0 0.00 0.00 0.00 31 1016.4
20260508153504 55 173 0.0 0.0 0.00 0.00 0.00 31 1016.4
20260508152004 55 181 0.0 5.2 0.00 0.00 0.00 30 1016.5
20260508151504 55 199 0.9 6.1 0.00 0.00 0.00 30 1016.5
20260508150503 56 173 0.0 4.3 0.00 0.00 0.00 30 1016.6
20260508145504 55 175 0.0 0.0 0.00 0.00 0.00 30 1016.6
20260508144504 55 236 0.0 0.0 0.00 0.00 0.00 30 1016.8
20260508144004 56 240 0.9 4.3 0.00 0.00 0.00 29 1016.8
20260508143004 56 216 0.0 5.2 0.00 0.00 0.00 29 1016.8
20260508142504 57 253 0.9 5.2 0.00 0.00 0.00 28 1016.8
20260508141504 57 179 0.9 7.8 0.00 0.00 0.00 29 1016.8
20260508141004 57 246 0.0 5.2 0.00 0.00 0.00 29 1016.8
20260508140004 56 198 0.0 5.2 0.00 0.00 0.00 30 1016.8
20260508135004 56 182 0.9 6.1 0.00 0.00 0.00 30 1017.0
20260508134504 56 220 0.0 2.6 0.00 0.00 0.00 31 1016.9
20260508134005 55 165 0.0 5.2 0.00 0.00 0.00 30 1017.0
20260508133503 56 215 0.9 7.0 0.00 0.00 0.00 31 1017.1
20260508133004 56 199 0.0 2.6 0.00 0.00 0.00 30 1017.0
20260508132504 55 222 0.0 0.0 0.00 0.00 0.00 32 1017.1
20260508131004 55 214 0.0 7.8 0.00 0.00 0.00 31 1017.3
20260508130504 56 188 4.3 8.7 0.00 0.00 0.00 30 1017.3
20260508130004 56 159 0.0 2.6 0.00 0.00 0.00 31 1017.3
20260508125503 56 206 0.0 2.6 0.00 0.00 0.00 31 1017.4
20260508125004 56 227 0.9 7.8 0.00 0.00 0.00 31 1017.4
20260508124504 56 228 0.9 8.7 0.00 0.00 0.00 30 1017.4
20260508123504 55 194 1.7 12.2 0.00 0.00 0.00 31 1017.3
20260508123004 55 204 1.7 8.7 0.00 0.00 0.00 31 1017.3
20260508122503 53 206 0.0 5.2 0.00 0.00 0.00 32 1017.4
20260508122004 53 205 0.9 6.1 0.00 0.00 0.00 31 1017.4
20260508121504 54 189 0.9 7.0 0.00 0.00 0.00 30 1017.4
20260508121004 55 189 0.9 7.8 0.00 0.00 0.00 29 1017.4
20260508120504 56 260 2.6 10.4 0.00 0.00 0.00 29 1017.5
20260508120003 56 198 0.0 7.0 0.00 0.00 0.00 30 1017.4
20260508115503 56 158 0.9 7.0 0.00 0.00 0.00 30 1017.4
20260508115004 56 151 0.0 8.7 0.00 0.00 0.00 30 1017.5
20260508114504 56 198 0.0 2.6 0.00 0.00 0.00 30 1017.5
20260508114004 55 178 0.0 0.0 0.00 0.00 0.00 31 1017.5
20260508113504 55 166 0.0 2.6 0.00 0.00 0.00 31 1017.6
20260508112503 54 204 1.7 6.1 0.00 0.00 0.00 32 1017.7
20260508112003 53 316 0.0 4.3 0.00 0.00 0.00 32 1017.7
20260508111504 53 302 0.9 5.2 0.00 0.00 0.00 32 1017.8
20260508111004 53 215 0.0 0.0 0.00 0.00 0.00 32 1017.8
20260508110504 53 221 0.0 5.2 0.00 0.00 0.00 33 1017.8
20260508110004 53 272 0.0 4.3 0.00 0.00 0.00 33 1017.8
20260508104504 53 302 0.9 6.1 0.00 0.00 0.00 33 1017.9
20260508103504 52 257 0.9 5.2 0.00 0.00 0.00 34 1017.9
20260508103004 52 202 0.0 7.0 0.00 0.00 0.00 34 1018.0
20260508102503 52 207 2.6 10.4 0.00 0.00 0.00 32 1018.1
20260508102004 52 179 1.7 7.0 0.00 0.00 0.00 33 1018.1
20260508101504 52 253 0.0 7.8 0.00 0.00 0.00 33 1018.1
20260508101003 52 280 0.9 7.0 0.00 0.00 0.00 34 1018.1
20260508100504 52 202 0.0 6.1 0.00 0.00 0.00 34 1018.1
20260508093504 51 273 0.0 6.1 0.00 0.00 0.00 34 1018.2
20260508093004 51 208 2.6 8.7 0.00 0.00 0.00 34 1018.3
20260508092004 50 247 0.9 7.8 0.00 0.00 0.00 34 1018.3
20260508091504 50 295 0.9 4.3 0.00 0.00 0.00 34 1018.3
20260508091004 50 297 0.9 6.1 0.00 0.00 0.00 34 1018.4
20260508090505 50 186 0.0 6.1 0.00 0.00 0.00 34 1018.4
20260508090004 49 202 1.7 7.8 0.00 0.00 0.00 37 1018.4
20260508085503 49 289 0.0 5.2 0.00 0.00 0.00 36 1018.4
20260508085004 49 223 1.7 6.1 0.00 0.00 0.00 36 1018.5
20260508084504 49 251 1.7 6.1 0.00 0.01 0.00 38 1018.5
20260508084003 48 214 0.9 2.6 0.00 0.01 0.00 36 1018.5
20260508083504 48 221 2.6 7.0 0.00 0.01 0.00 37 1018.5
20260508082003 47 282 1.7 8.7 0.00 0.01 0.00 40 1018.5
20260508081004 47 305 1.7 5.2 0.00 0.01 0.00 40 1018.5
20260508080504 47 219 0.0 7.0 0.00 0.01 0.00 45 1018.5
20260508080004 46 241 0.0 1.7 0.00 0.01 0.00 46 1018.5
20260508075503 46 273 2.6 7.8 0.00 0.01 0.00 46 1018.4
20260508075003 46 222 1.7 8.7 0.00 0.01 0.00 48 1018.4
20260508074504 46 214 0.9 6.1 0.00 0.01 0.00 47 1018.5
20260508074004 46 297 0.9 4.3 0.00 0.01 0.00 49 1018.4
20260508073504 45 229 1.7 7.8 0.00 0.01 0.00 50 1018.4
20260508072504 45 252 0.9 4.3 0.00 0.01 0.00 53 1018.4
20260508072004 44 208 1.7 6.1 0.00 0.01 0.00 53 1018.4
20260508071503 44 270 0.9 4.3 0.00 0.01 0.00 54 1018.4
20260508071004 44 203 0.9 5.2 0.00 0.01 0.00 56 1018.3
20260508070503 44 263 0.9 5.2 0.00 0.01 0.00 56 1018.2
20260508070004 43 201 0.9 5.2 0.00 0.01 0.00 58 1018.3
20260508065004 43 204 0.0 2.6 0.00 0.01 0.00 58 1018.1
20260508064504 43 254 0.9 2.6 0.00 0.01 0.00 59 1018.1
20260508064004 43 285 0.9 2.6 0.00 0.01 0.00 59 1018.1
20260508063504 42 235 0.0 2.6 0.00 0.01 0.00 61 1018.1
20260508063004 42 229 0.9 2.6 0.00 0.01 0.00 62 1018.1
20260508062504 42 234 0.0 2.6 0.00 0.01 0.00 63 1018.0
20260508062004 41 207 0.9 1.7 0.00 0.01 0.00 63 1018.0
20260508061504 41 289 0.0 1.7 0.00 0.01 0.00 64 1018.0
20260508060504 40 143 0.0 0.0 0.00 0.01 0.00 69 1017.9
20260508060004 40 143 0.0 0.0 0.00 0.01 0.00 69 1017.8
20260508055505 40 143 0.0 0.0 0.00 0.01 0.00 69 1017.8
20260508055004 39 143 0.0 0.0 0.00 0.01 0.00 70 1017.7
20260508054503 39 200 0.0 0.0 0.00 0.01 0.00 70 1017.7
20260508054004 39 202 0.0 0.0 0.00 0.01 0.00 71 1017.6
20260508053504 38 230 0.0 0.0 0.00 0.01 0.00 73 1017.6
20260508053004 38 230 0.0 0.0 0.00 0.01 0.00 74 1017.7
20260508052003 36 230 0.0 0.0 0.00 0.01 0.00 78 1017.6
20260508051504 35 230 0.0 0.0 0.00 0.01 0.00 80 1017.6
20260508051004 34 236 0.0 0.0 0.00 0.01 0.00 82 1017.6
20260508050504 34 303 0.0 0.0 0.00 0.01 0.00 84 1017.6
20260508050004 33 303 0.0 0.0 0.00 0.01 0.00 86 1017.6
20260508045004 31 302 0.0 0.0 0.00 0.01 0.00 88 1017.5
20260508044504 31 302 0.0 0.0 0.00 0.01 0.00 89 1017.5
20260508044004 30 302 0.0 0.0 0.00 0.01 0.00 90 1017.5
20260508043504 30 303 0.0 0.0 0.00 0.01 0.00 90 1017.4
20260508043004 29 302 0.0 0.0 0.00 0.01 0.00 89 1017.4
20260508042005 28 302 0.0 0.0 0.00 0.01 0.00 88 1017.3
20260508041505 27 302 0.0 0.0 0.00 0.01 0.00 88 1017.4
20260508041004 27 303 0.0 0.0 0.00 0.01 0.00 88 1017.3
20260508035504 25 302 0.0 0.0 0.00 0.01 0.00 88 1017.3
20260508035004 25 303 0.0 0.0 0.00 0.01 0.00 88 1017.2
20260508034504 24 302 0.0 0.0 0.00 0.01 0.00 89 1017.2
20260508033504 23 302 0.0 0.0 0.00 0.01 0.00 89 1017.2
20260508033004 23 302 0.0 0.0 0.00 0.01 0.00 89 1017.1
20260508032503 23 302 0.0 0.0 0.00 0.01 0.00 89 1017.1
20260508032004 23 302 0.0 0.0 0.00 0.01 0.00 89 1017.1
20260508031504 22 302 0.0 0.0 0.00 0.01 0.00 89 1017.1
20260508030504 22 302 0.0 0.0 0.00 0.01 0.00 89 1017.0
20260508030004 22 302 0.0 0.0 0.00 0.01 0.00 90 1017.0
20260508025504 22 302 0.0 0.0 0.00 0.01 0.00 90 1017.0
20260508025004 22 302 0.0 0.0 0.00 0.01 0.00 90 1016.9
20260508024504 21 302 0.0 0.0 0.00 0.01 0.00 90 1016.9
20260508024004 21 302 0.0 0.0 0.00 0.01 0.00 90 1016.9
20260508023004 21 302 0.0 0.0 0.00 0.01 0.00 90 1016.7
20260508022503 21 302 0.0 0.0 0.00 0.01 0.00 90 1016.7
20260508022004 21 302 0.0 0.0 0.00 0.01 0.00 90 1016.6
20260508021004 21 302 0.0 0.0 0.00 0.01 0.00 90 1016.6
20260508020503 21 302 0.0 0.0 0.00 0.01 0.00 90 1016.6
20260508020004 22 302 0.0 0.0 0.00 0.01 0.00 90 1016.5
20260508015504 22 302 0.0 0.0 0.00 0.01 0.00 90 1016.5
20260508015004 22 302 0.0 0.0 0.00 0.01 0.00 90 1016.5
20260508014004 22 302 0.0 0.0 0.00 0.01 0.00 90 1016.4
20260508013504 22 302 0.0 0.0 0.00 0.01 0.00 90 1016.4
20260508013004 22 302 0.0 0.0 0.00 0.01 0.00 90 1016.3
20260508012504 22 302 0.0 0.0 0.00 0.01 0.00 90 1016.3
20260508012004 22 302 0.0 0.0 0.00 0.01 0.00 90 1016.2
20260508011504 22 302 0.0 0.0 0.00 0.01 0.00 89 1016.2
20260508010504 22 302 0.0 0.0 0.00 0.01 0.00 90 1016.1
20260508010004 22 302 0.0 0.0 0.00 0.01 0.00 90 1016.1
20260508005503 22 302 0.0 0.0 0.00 0.01 0.00 90 1016.1
20260508005003 22 302 0.0 0.0 0.00 0.01 0.00 89 1016.0
20260508004503 22 302 0.0 0.0 0.00 0.01 0.00 89 1015.9
20260508004002 22 302 0.0 0.0 0.00 0.01 0.00 89 1015.9
20260508003503 23 302 0.0 0.0 0.00 0.01 0.00 89 1015.8
20260508003003 23 302 0.0 0.0 0.00 0.01 0.00 89 1015.8
20260508002502 23 302 0.0 0.0 0.00 0.01 0.00 89 1015.8
20260508002003 23 302 0.0 0.0 0.00 0.01 0.00 89 1015.7
20260508001503 23 302 0.0 0.0 0.00 0.01 0.00 89 1015.7
20260508001003 23 302 0.0 0.0 0.00 0.01 0.00 89 1015.7
20260508000003 23 302 0.0 0.0 0.00 0.01 0.00 89 1015.6
20260507235504 23 302 0.0 0.0 0.00 0.01 0.00 89 1015.5
20260507235003 23 302 0.0 0.0 0.00 0.01 0.00 89 1015.5
20260507234505 23 302 0.0 0.0 0.00 0.01 0.00 89 1015.4
20260507234004 23 302 0.0 0.0 0.00 0.01 0.00 89 1015.4
20260507233505 24 302 0.0 0.0 0.00 0.01 0.00 89 1015.3
20260507233003 24 302 0.0 0.0 0.00 0.01 0.00 89 1015.3
20260507232003 24 302 0.0 0.0 0.00 0.01 0.00 88 1015.2
20260507231503 24 302 0.0 0.0 0.00 0.01 0.00 88 1015.2
20260507231003 24 302 0.0 0.0 0.00 0.01 0.00 88 1015.2
20260507230502 24 302 0.0 0.0 0.00 0.01 0.00 88 1015.0
20260507230003 24 302 0.0 0.0 0.00 0.01 0.00 88 1015.0
20260507225503 24 302 0.0 0.0 0.00 0.01 0.00 88 1015.0